Flag for Cyprus Weather past 2 weeks in Larnaca, Cyprus

Now
77 °F

Passing clouds.


Feels Like: 78 °F
Forecast: 53 / 75 °F
Wind: 16 mph from Southwest

Location: Larnaca Airport


UV Index: 7 (High)

Visibility: N/A


Pressure: 29.92 "Hg

Humidity: 42%

Dew point: 52 °F

Location of LarnacaLocation

Historic Weather in Larnaca

°F

Larnaca temperature yesterday

Maximum temperature yesterday: 73 °F (at 5:00 PM)
Minimum temperature yesterday: 59 °F (at 12:30 AM)
Average temperature yesterday: 66 °F

Past Weeks' High & Low Weather Summary

 TemperatureHumidityPressure
High81 °F (Apr 17, 2:30 PM)94% (Apr 10, 4:00 AM)30.12 "Hg (Apr 10, 4:00 AM)
Low50 °F (Apr 11, 5:00 AM)21% (Apr 7, 9:30 AM)29.74 "Hg (Apr 17, 3:00 PM)
Average65 °F65%29.94 "Hg
* Reported Apr 5 1:00 PM — Apr 20 1:30 PM, Larnaca, Weather by CustomWeather, © 2014

Note: Actual official high and low records may vary slightly from our data, if they occured in-between our weather recording intervals... More about our weather records

Advertising

Historic Weather Conditions — Data for Previous 24 hours

 ConditionsComfort  
Time TempWeatherWind HumidityBarometerVisibility
1:30 PM
Apr 20
77 °FPassing clouds.14 mph44%29.92 "HgN/A
1:00 PM75 °FPassing clouds.14 mph44%29.95 "HgN/A
12:30 PM75 °FPassing clouds.13 mph44%29.95 "HgN/A
12:00 PM73 °FPassing clouds.12 mph57%29.95 "HgN/A
11:30 AM75 °FPassing clouds.6 mph50%29.95 "HgN/A
11:00 AM77 °FPassing clouds.8 mph32%29.95 "HgN/A
10:30 AM75 °FPassing clouds.8 mph36%29.95 "HgN/A
10:00 AM73 °FSunny.10 mph38%29.95 "Hg10 mi
9:30 AM72 °FSunny.13 mph47%29.95 "Hg10 mi
9:00 AM70 °FSunny.13 mph50%29.95 "Hg10 mi
8:30 AM68 °FSunny.13 mph49%29.95 "Hg10 mi
8:00 AM66 °FSunny.10 mph52%29.95 "Hg10 mi
7:30 AM63 °FSunny.12 mph59%29.95 "Hg10 mi
7:00 AM61 °FClear.9 mph68%29.95 "Hg10 mi
6:30 AM59 °FPassing clouds.8 mph72%29.95 "HgN/A
6:00 AM59 °FClear.9 mph72%29.92 "Hg10 mi
5:30 AM59 °FPassing clouds.10 mph72%29.95 "HgN/A
5:00 AM61 °FPassing clouds.14 mph68%29.95 "HgN/A
4:30 AM61 °FPassing clouds.14 mph68%29.95 "HgN/A
4:00 AM61 °FPassing clouds.15 mph68%29.95 "HgN/A
3:30 AM61 °FPassing clouds.15 mph68%29.95 "HgN/A
3:00 AM61 °FPassing clouds.12 mph68%29.95 "HgN/A
2:30 AM61 °FPassing clouds.12 mph68%29.95 "HgN/A
2:00 AM61 °FPassing clouds.14 mph68%29.98 "HgN/A
1:30 AM61 °FPassing clouds.15 mph59%29.98 "HgN/A
1:00 AM63 °FPassing clouds.9 mph64%29.98 "HgN/A
12:30 AM61 °FPassing clouds.12 mph77%29.98 "HgN/A
12:00 AM61 °FPassing clouds.10 mph77%29.98 "HgN/A
11:30 PM
Apr 19
61 °FClear.16 mph77%29.98 "Hg10 mi
11:00 PM61 °FClear.14 mph77%30.01 "Hg10 mi
10:00 PM63 °FPassing clouds.15 mph73%30.01 "HgN/A
9:30 PM63 °FPassing clouds.15 mph73%30.01 "HgN/A
9:00 PM63 °FPassing clouds.14 mph77%30.01 "HgN/A
8:30 PM64 °FPassing clouds.12 mph73%30.01 "HgN/A
8:00 PM66 °FPassing clouds.10 mph73%30.01 "HgN/A
7:30 PM68 °FPassing clouds.14 mph69%30.01 "HgN/A
7:00 PM70 °FPassing clouds.14 mph64%30.01 "HgN/A
6:30 PM72 °FPassing clouds.9 mph61%30.01 "HgN/A
6:00 PM73 °FPassing clouds.13 mph50%29.98 "HgN/A
5:30 PM73 °FPassing clouds.13 mph57%29.98 "HgN/A
5:00 PM73 °FPassing clouds.13 mph61%29.98 "HgN/A
4:30 PM68 °FPassing clouds.5 mph73%30.01 "HgN/A
4:00 PM68 °FPassing clouds.8 mph73%29.98 "HgN/A
3:30 PM68 °FScattered showers. Passing clouds.12 mph73%29.98 "HgN/A
3:00 PM68 °FPassing clouds.15 mph73%29.98 "HgN/A
2:30 PM68 °FPassing clouds.12 mph69%30.04 "HgN/A
2:00 PM68 °FLight rain. Passing clouds.15 mph78%30.04 "HgN/A
Weather by CustomWeather, © 2014

See weather overview